CW6099 Weather Reports


Display with metric or nautical units.
time (UTC)temp
F
wind
direction
speed
MPH
gust
MPH
rain 1hr
in
rain 24hr
in
rain mn
in
humidity
%
barometer
mb
20260507012414 42 230 9.0 11.0 0.00 0.77 0.55 91 1018.6
20260507012327 42 234 9.0 11.0 0.00 0.77 0.55 91 1018.6
20260507011438 42 235 8.0 12.0 0.00 0.77 0.55 90 1018.5
20260507011310 42 223 8.0 12.0 0.00 0.77 0.55 90 1018.6
20260507010442 43 215 10.0 15.0 0.00 0.77 0.55 89 1018.5
20260507010313 43 213 9.0 15.0 0.00 0.77 0.55 89 1018.5
20260507005425 43 242 11.0 15.0 0.00 0.77 0.55 88 1018.5
20260507005317 43 231 11.0 15.0 0.00 0.77 0.55 88 1018.6
20260507004414 44 234 10.0 15.0 0.00 0.77 0.55 89 1018.6
20260507004327 44 230 10.0 15.0 0.00 0.77 0.55 88 1018.5
20260507003418 44 236 12.0 15.0 0.00 0.77 0.55 88 1018.6
20260507003312 44 211 12.0 15.0 0.00 0.77 0.55 88 1018.6
20260507002442 44 215 10.0 14.0 0.00 0.77 0.55 88 1018.5
20260507002335 44 220 10.0 14.0 0.00 0.77 0.55 89 1018.5
20260507001444 44 228 10.0 12.0 0.00 0.77 0.55 92 1018.6
20260507001317 44 226 9.0 12.0 0.00 0.77 0.55 92 1018.6
20260507000450 43 223 7.0 11.0 0.00 0.77 0.55 91 1018.6
20260507000321 43 223 8.0 11.0 0.00 0.77 0.55 91 1018.6
20260506235430 43 207 7.0 11.0 0.00 0.77 0.55 92 1018.7
20260506235324 43 242 8.0 11.0 0.00 0.77 0.55 91 1018.7
20260506234416 43 215 8.0 12.0 0.00 0.77 0.55 92 1018.7
20260506234326 43 181 7.0 12.0 0.00 0.77 0.55 92 1018.8
20260506233414 43 208 8.0 12.0 0.01 0.77 0.55 91 1018.9
20260506233328 43 219 9.0 12.0 0.01 0.77 0.55 92 1018.9
20260506232419 43 204 9.0 13.0 0.01 0.77 0.55 91 1018.9
20260506232313 43 197 9.0 14.0 0.01 0.77 0.55 91 1018.9
20260506231424 43 221 8.0 14.0 0.02 0.77 0.55 92 1019.1
20260506231336 43 215 9.0 14.0 0.02 0.77 0.55 93 1019.0
20260506230410 43 206 8.0 10.0 0.03 0.77 0.55 93 1018.9
20260506230322 43 239 8.0 10.0 0.03 0.77 0.55 94 1018.9
20260506225433 43 215 6.0 9.0 0.04 0.77 0.55 94 1018.8
20260506225324 43 232 5.0 9.0 0.04 0.77 0.55 94 1018.8
20260506224415 42 240 7.0 10.0 0.07 0.77 0.55 93 1018.8
20260506224326 42 242 7.0 10.0 0.07 0.77 0.55 93 1018.9
20260506223416 42 219 4.0 8.0 0.07 0.76 0.54 94 1018.9
20260506223329 42 232 4.0 8.0 0.07 0.76 0.54 94 1018.9
20260506222421 42 233 6.0 8.0 0.07 0.76 0.54 94 1019.0
20260506222317 42 246 5.0 7.0 0.07 0.76 0.54 94 1019.0
20260506221445 42 234 5.0 10.0 0.06 0.75 0.53 94 1019.0
20260506221321 42 246 7.0 10.0 0.06 0.75 0.53 94 1019.0
20260506220412 42 252 6.0 9.0 0.05 0.74 0.52 94 1019.0
20260506220324 42 238 5.0 7.0 0.05 0.74 0.52 94 1019.0
20260506215415 42 230 3.0 12.0 0.05 0.81 0.51 92 1019.0
20260506215348 42 225 3.0 12.0 0.05 0.81 0.51 91 1019.0
20260506214419 42 267 7.0 10.0 0.02 0.78 0.48 91 1019.0
20260506214311 43 247 5.0 9.0 0.02 0.78 0.48 91 1019.1
20260506213444 43 229 5.0 7.0 0.01 0.77 0.47 91 1019.1
20260506213321 43 250 6.0 7.0 0.01 0.77 0.47 91 1019.1
20260506212413 43 223 4.0 8.0 0.01 0.77 0.47 90 1019.1
20260506212325 43 232 4.0 8.0 0.01 0.77 0.47 88 1019.0
20260506211415 43 203 4.0 9.0 0.01 0.77 0.47 89 1019.0
20260506211327 43 207 5.0 9.0 0.01 0.77 0.47 89 1019.0
20260506210418 43 197 2.0 8.0 0.01 0.77 0.47 89 1019.1
20260506210331 43 180 3.0 8.0 0.01 0.77 0.47 89 1019.1
20260506205421 43 213 6.0 8.0 0.00 0.78 0.46 90 1019.1
20260506205314 43 202 6.0 8.0 0.00 0.78 0.46 91 1019.1
20260506204426 43 195 5.0 7.0 0.00 0.78 0.46 91 1019.3
20260506204323 43 180 5.0 7.0 0.00 0.78 0.46 90 1019.3
20260506203415 43 246 4.0 6.0 0.00 0.78 0.46 90 1019.3
20260506203327 43 210 4.0 6.0 0.00 0.78 0.46 90 1019.3
20260506202437 43 218 5.0 8.0 0.00 0.78 0.46 90 1019.3
20260506202326 43 194 5.0 8.0 0.00 0.78 0.46 90 1019.3
20260506201436 43 212 4.0 7.0 0.00 0.78 0.46 91 1019.3
20260506201326 43 192 3.0 6.0 0.00 0.78 0.46 91 1019.3
20260506200416 43 198 3.0 6.0 0.00 0.78 0.46 90 1019.2
20260506200329 43 155 3.0 6.0 0.00 0.78 0.46 92 1019.2
20260506195422 43 155 5.0 9.0 0.00 0.80 0.46 92 1019.1
20260506195317 43 139 6.0 9.0 0.00 0.80 0.46 91 1019.1
20260506194429 42 167 3.0 7.0 0.00 0.80 0.46 91 1019.2
20260506194320 42 194 4.0 7.0 0.00 0.80 0.46 91 1019.2
20260506193411 42 180 4.0 7.0 0.00 0.80 0.46 91 1019.3
20260506193344 42 152 5.0 7.0 0.00 0.80 0.46 90 1019.3
20260506192413 42 186 3.0 7.0 0.00 0.80 0.46 90 1019.3
20260506192326 42 169 3.0 7.0 0.00 0.80 0.46 90 1019.3
20260506191418 42 150 6.0 7.0 0.01 0.80 0.46 93 1019.2
20260506191315 42 165 5.0 7.0 0.01 0.80 0.46 91 1019.1
20260506190427 42 144 3.0 6.0 0.01 0.80 0.46 92 1019.2
20260506190338 42 141 4.0 6.0 0.01 0.80 0.46 92 1019.2
20260506185429 42 161 3.0 7.0 0.01 0.80 0.46 93 1019.3
20260506185321 42 148 4.0 7.0 0.01 0.80 0.46 93 1019.3
20260506184411 41 170 3.0 7.0 0.01 0.80 0.46 92 1019.4
20260506184324 41 149 3.0 7.0 0.01 0.80 0.46 93 1019.4
20260506183436 41 63 1.0 7.0 0.01 0.80 0.46 94 1019.6
20260506183330 41 28 1.0 7.0 0.01 0.80 0.46 93 1019.5
20260506182417 40 126 3.0 5.0 0.02 0.80 0.46 95 1019.6
20260506182312 40 122 3.0 5.0 0.01 0.79 0.45 95 1019.6
20260506181423 40 136 2.0 3.0 0.01 0.79 0.45 94 1019.7
20260506181315 40 155 2.0 3.0 0.01 0.79 0.45 94 1019.7
20260506180439 40 117 1.0 5.0 0.02 0.79 0.45 95 1019.7
20260506180311 39 96 1.0 6.0 0.02 0.79 0.45 94 1019.8
20260506175422 39 118 1.0 7.0 0.03 0.79 0.45 95 1019.7
20260506175316 39 142 1.0 7.0 0.04 0.79 0.45 95 1019.7
20260506174426 38 84 1.0 4.0 0.05 0.79 0.45 96 1019.8
20260506174319 38 160 1.0 4.0 0.05 0.79 0.45 96 1019.7
20260506173416 38 82 1.0 3.0 0.07 0.79 0.45 96 1019.8
20260506173329 38 82 1.0 3.0 0.07 0.79 0.45 96 1019.8
20260506172420 38 279 1.0 5.0 0.08 0.78 0.44 96 1019.8
20260506172313 38 164 2.0 5.0 0.08 0.78 0.44 96 1019.8
20260506171424 37 101 3.0 7.0 0.10 0.78 0.44 97 1019.8
20260506171316 37 130 3.0 7.0 0.10 0.78 0.44 96 1019.8
20260506170427 37 91 2.0 5.0 0.11 0.77 0.43 96 1019.7
20260506170321 37 234 1.0 5.0 0.11 0.77 0.43 96 1019.7
20260506165452 37 147 4.0 7.0 0.12 0.76 0.42 97 1019.7
20260506165326 37 141 4.0 7.0 0.12 0.76 0.41 97 1019.6
20260506164418 36 134 3.0 5.0 0.13 0.75 0.40 97 1019.6
20260506164311 36 140 2.0 5.0 0.13 0.75 0.40 97 1019.5
20260506163423 36 136 4.0 7.0 0.13 0.73 0.38 97 1019.5
20260506163314 36 115 3.0 7.0 0.14 0.73 0.38 97 1019.4
20260506162425 36 74 2.0 4.0 0.13 0.71 0.36 97 1019.4
20260506162314 35 86 2.0 4.0 0.14 0.71 0.36 97 1019.4
20260506161446 35 198 2.0 4.0 0.13 0.69 0.34 97 1019.3
20260506161338 35 20 2.0 4.0 0.13 0.69 0.34 97 1019.3
20260506160409 35 63 2.0 3.0 0.12 0.67 0.32 97 1019.3
20260506160346 35 124 2.0 3.0 0.12 0.67 0.32 97 1019.2
20260506155413 35 46 1.0 3.0 0.09 0.64 0.29 98 1019.1
20260506155325 35 145 1.0 3.0 0.09 0.64 0.29 98 1019.1
20260506154417 34 83 2.0 4.0 0.08 0.62 0.27 98 1018.9
20260506154327 34 82 2.0 4.0 0.08 0.62 0.27 98 1018.9
20260506153417 34 80 2.0 4.0 0.07 0.60 0.25 98 1019.0
20260506153311 34 87 2.0 4.0 0.06 0.59 0.24 98 1019.0
20260506152422 34 82 2.0 3.0 0.06 0.58 0.23 98 1018.9
20260506152315 34 79 1.0 3.0 0.05 0.57 0.22 98 1018.9
20260506151410 34 92 1.0 3.0 0.04 0.56 0.21 98 1018.9
20260506151324 34 92 1.0 3.0 0.04 0.56 0.21 98 1018.9
20260506150413 34 131 0.0 2.0 0.03 0.55 0.20 98 1019.0
20260506150326 34 131 0.0 2.0 0.03 0.55 0.20 98 1018.9
20260506145418 33 170 1.0 2.0 0.04 0.55 0.20 98 1019.0
20260506145326 33 170 1.0 2.0 0.04 0.55 0.20 98 1019.0
20260506144418 33 192 0.0 0.0 0.03 0.54 0.19 98 1019.0
20260506144311 33 192 0.0 0.0 0.03 0.54 0.19 98 1019.0
20260506143442 33 192 0.0 0.0 0.02 0.53 0.18 98 1019.0
20260506143318 33 192 0.0 0.0 0.02 0.53 0.18 98 1019.0
20260506142429 34 192 0.0 0.0 0.01 0.52 0.17 98 1018.9
20260506142319 33 192 0.0 0.0 0.01 0.52 0.17 98 1019.0
20260506141409 34 192 0.0 1.0 0.01 0.52 0.17 98 1019.0
20260506141322 34 192 0.0 1.0 0.01 0.52 0.17 98 1019.0
20260506140413 34 192 0.0 2.0 0.01 0.52 0.17 98 1018.9
20260506140327 34 192 0.0 2.0 0.01 0.52 0.17 98 1018.9
20260506135415 34 192 0.0 0.0 0.00 0.51 0.16 98 1018.9
20260506135327 34 192 0.0 0.0 0.00 0.51 0.16 98 1018.9
20260506134418 33 192 0.0 0.0 0.00 0.51 0.16 98 1018.7
20260506134312 33 192 0.0 0.0 0.00 0.51 0.16 98 1018.7
20260506133424 33 192 0.0 0.0 0.00 0.51 0.16 98 1018.5
20260506133316 33 192 0.0 0.0 0.00 0.51 0.16 98 1018.5
20260506132427 33 192 0.0 0.0 0.00 0.51 0.16 98 1018.4
20260506132320 33 192 0.0 0.0 0.00 0.51 0.16 98 1018.4
20260506131411 33 192 0.0 0.0 0.00 0.51 0.16 98 1018.3
20260506131323 33 192 0.0 0.0 0.00 0.51 0.16 98 1018.3
20260506130414 33 40 0.0 0.0 0.00 0.51 0.16 98 1018.2
20260506130324 33 40 0.0 0.0 0.00 0.51 0.16 98 1018.1
20260506125437 33 40 0.0 0.0 0.00 0.51 0.16 98 1018.0
20260506125310 33 40 0.0 0.0 0.00 0.51 0.16 98 1018.0
20260506124419 33 40 0.0 0.0 0.00 0.51 0.16 98 1017.8
20260506124312 33 40 0.0 0.0 0.00 0.51 0.16 98 1017.8
20260506123424 33 74 0.0 0.0 0.00 0.51 0.16 98 1017.5
20260506123317 33 74 0.0 0.0 0.00 0.51 0.16 98 1017.5
20260506122409 33 150 0.0 0.0 0.00 0.51 0.16 98 1017.4
20260506122321 33 150 0.0 0.0 0.00 0.51 0.16 98 1017.4
20260506121414 33 150 0.0 0.0 0.00 0.51 0.16 98 1017.2
20260506121309 33 150 0.0 0.0 0.00 0.51 0.16 98 1017.1
20260506120421 33 150 0.0 0.0 0.00 0.51 0.16 98 1017.1
20260506120311 33 150 0.0 0.0 0.00 0.51 0.16 98 1017.1
20260506115422 33 151 0.0 0.0 0.00 0.51 0.16 98 1017.1
20260506115313 33 151 0.0 0.0 0.00 0.51 0.16 98 1017.1
20260506114444 33 151 0.0 0.0 0.00 0.51 0.16 98 1017.0
20260506114316 33 151 0.0 0.0 0.00 0.51 0.16 98 1016.9
20260506113409 33 151 0.0 0.0 0.00 0.51 0.16 98 1016.9
20260506113321 33 151 0.0 0.0 0.00 0.51 0.16 98 1016.9
20260506112412 33 151 0.0 0.0 0.01 0.51 0.16 98 1016.8
20260506112329 33 151 0.0 0.0 0.01 0.51 0.16 98 1016.7
20260506111418 33 151 0.0 0.0 0.01 0.51 0.16 97 1016.7
20260506111332 33 151 0.0 0.0 0.01 0.51 0.16 97 1016.7
20260506110423 33 151 0.0 0.0 0.01 0.51 0.16 97 1016.6
20260506110314 33 151 0.0 0.0 0.01 0.51 0.16 97 1016.6
20260506105422 33 151 0.0 1.0 0.01 0.51 0.16 97 1016.5
20260506105336 33 151 0.0 1.0 0.01 0.51 0.16 97 1016.5
20260506104426 33 151 0.0 1.0 0.02 0.51 0.16 97 1016.5
20260506104338 33 151 0.0 1.0 0.02 0.51 0.16 97 1016.5
20260506103409 33 151 0.0 2.0 0.03 0.51 0.16 97 1016.7
20260506103327 33 151 0.0 3.0 0.03 0.51 0.16 96 1016.7
20260506102418 33 153 2.0 3.0 0.04 0.50 0.15 96 1016.5
20260506102311 34 155 2.0 3.0 0.04 0.50 0.15 96 1016.5
20260506101422 34 146 2.0 3.0 0.05 0.50 0.15 96 1016.5
20260506101314 34 148 2.0 3.0 0.05 0.50 0.15 96 1016.5
20260506100427 34 140 3.0 3.0 0.05 0.50 0.15 96 1016.4
20260506100339 34 150 3.0 3.0 0.05 0.50 0.15 96 1016.4
20260506095429 35 148 2.0 4.0 0.06 0.50 0.15 96 1016.4
20260506095339 35 147 2.0 4.0 0.06 0.50 0.15 96 1016.4
20260506094409 35 145 2.0 3.0 0.06 0.49 0.14 96 1016.3
20260506094321 36 144 2.0 3.0 0.06 0.49 0.14 96 1016.3
20260506093432 36 136 2.0 3.0 0.06 0.48 0.13 96 1016.2
20260506093327 36 136 2.0 3.0 0.06 0.48 0.13 96 1016.2
20260506092419 36 88 1.0 3.0 0.05 0.46 0.11 96 1016.1
20260506092312 36 86 2.0 3.0 0.05 0.46 0.11 96 1016.1
20260506091424 36 153 1.0 3.0 0.04 0.45 0.10 97 1016.0
20260506091337 36 106 1.0 3.0 0.04 0.45 0.10 97 1016.0
20260506090427 36 80 3.0 5.0 0.04 0.45 0.10 96 1015.8
20260506090319 36 65 2.0 5.0 0.04 0.45 0.10 97 1015.8
20260506085410 36 179 2.0 5.0 0.04 0.44 0.09 96 1015.7
20260506085322 37 139 2.0 5.0 0.04 0.44 0.09 96 1015.8
20260506084419 37 142 2.0 7.0 0.03 0.43 0.08 96 1015.6
20260506084331 37 53 3.0 7.0 0.03 0.43 0.08 96 1015.6
20260506083441 37 162 3.0 6.0 0.02 0.42 0.07 97 1015.5
20260506083311 37 274 3.0 6.0 0.02 0.42 0.07 97 1015.5
20260506082421 37 159 3.0 5.0 0.02 0.41 0.06 97 1015.5
20260506082313 37 320 2.0 7.0 0.02 0.41 0.06 97 1015.5
20260506081424 37 169 3.0 8.0 0.02 0.41 0.06 97 1015.4
20260506081317 37 115 3.0 8.0 0.02 0.41 0.06 97 1015.5
20260506080409 37 132 2.0 5.0 0.03 0.41 0.06 96 1015.4
20260506080326 37 277 3.0 5.0 0.03 0.41 0.06 96 1015.4
20260506073424 38 96 3.0 7.0 0.04 0.40 0.05 97 1015.6
20260506073335 38 82 2.0 7.0 0.04 0.40 0.05 97 1015.7
20260506072446 38 155 2.0 8.0 0.03 0.39 0.04 97 1015.8
20260506072336 38 144 3.0 9.0 0.03 0.39 0.04 97 1015.8
20260506071426 38 145 5.0 9.0 0.04 0.39 0.04 97 1015.8
20260506071322 38 175 3.0 9.0 0.04 0.39 0.04 96 1015.9
20260506070415 38 156 1.0 6.0 0.03 0.38 0.03 96 1015.9
20260506070327 38 100 2.0 6.0 0.03 0.38 0.03 96 1015.9
20260506062415 38 263 2.0 7.0 0.02 0.36 0.01 96 1015.9
20260506062348 38 186 2.0 7.0 0.02 0.36 0.01 96 1015.9
20260506061418 38 236 3.0 8.0 0.01 0.35 0.00 96 1015.8
20260506061311 38 144 3.0 8.0 0.01 0.35 0.00 96 1015.8
20260506060423 38 158 3.0 9.0 0.01 0.35 0.00 96 1015.7
20260506060315 38 153 3.0 9.0 0.01 0.35 0.00 96 1015.7
20260506051316 39 142 2.0 5.0 0.05 0.34 0.34 96 1015.5
20260506050427 39 109 3.0 7.0 0.06 0.34 0.34 96 1015.4
20260506050320 39 98 3.0 7.0 0.06 0.34 0.34 96 1015.4
20260506044421 39 192 3.0 8.0 0.08 0.33 0.33 97 1015.3
20260506044313 39 137 3.0 8.0 0.08 0.33 0.33 97 1015.3
20260506043425 39 297 3.0 7.0 0.08 0.32 0.32 97 1015.2
20260506043339 40 140 4.0 7.0 0.08 0.32 0.32 97 1015.3
20260506042409 40 148 3.0 5.0 0.08 0.31 0.31 97 1015.4
20260506042323 40 23 3.0 5.0 0.08 0.31 0.31 97 1015.3
20260506041413 40 136 3.0 7.0 0.07 0.29 0.29 97 1015.4
20260506041328 40 129 3.0 7.0 0.07 0.29 0.29 97 1015.4
20260506040417 40 102 3.0 8.0 0.07 0.28 0.28 97 1015.2
20260506040309 40 123 3.0 8.0 0.07 0.28 0.28 97 1015.2
20260506035422 40 86 6.0 9.0 0.07 0.27 0.27 97 1015.1
20260506035335 40 78 5.0 9.0 0.07 0.27 0.27 97 1015.1
20260506034444 40 74 6.0 10.0 0.07 0.25 0.25 97 1015.1
20260506034315 40 74 6.0 10.0 0.07 0.25 0.25 97 1015.1
20260506033427 40 81 7.0 11.0 0.08 0.24 0.24 97 1015.1
20260506033320 40 80 5.0 11.0 0.08 0.24 0.24 97 1015.2
20260506032411 40 53 10.0 13.0 0.08 0.23 0.23 97 1015.0
20260506032328 40 64 9.0 13.0 0.08 0.23 0.23 97 1015.0
20260506031436 40 65 7.0 11.0 0.08 0.22 0.22 97 1014.8
20260506031328 40 49 6.0 10.0 0.08 0.22 0.22 97 1014.8
20260506030437 40 44 5.0 11.0 0.07 0.21 0.21 96 1014.7
20260506030347 40 42 7.0 11.0 0.07 0.21 0.21 96 1014.6
20260506025417 40 54 6.0 11.0 0.06 0.20 0.20 96 1014.5
20260506025330 40 60 6.0 11.0 0.06 0.20 0.20 96 1014.4
20260506024420 41 53 8.0 12.0 0.05 0.18 0.18 96 1014.3
20260506024332 41 59 7.0 11.0 0.05 0.18 0.18 96 1014.3
20260506023422 41 55 8.0 10.0 0.03 0.16 0.16 96 1014.2
20260506023336 41 54 7.0 11.0 0.03 0.16 0.16 96 1014.2
20260506022424 41 54 9.0 11.0 0.02 0.15 0.15 96 1013.8
20260506022342 41 56 9.0 11.0 0.02 0.15 0.15 96 1013.8
20260506021411 41 55 8.0 13.0 0.01 0.14 0.14 95 1013.6
20260506021323 41 66 8.0 13.0 0.01 0.14 0.14 95 1013.4
20260506020414 41 59 5.0 10.0 0.01 0.14 0.14 95 1013.1
20260506020348 41 51 6.0 10.0 0.01 0.14 0.14 95 1013.1
20260506015439 41 84 6.0 9.0 0.01 0.14 0.14 95 1012.9
20260506015311 41 73 5.0 9.0 0.01 0.14 0.14 95 1013.0
20260506014423 41 53 5.0 9.0 0.00 0.13 0.13 94 1012.9
20260506014315 41 92 5.0 9.0 0.00 0.13 0.13 94 1012.9
20260506013413 41 51 6.0 10.0 0.00 0.13 0.13 93 1012.8
20260506013345 41 62 7.0 10.0 0.00 0.13 0.13 93 1012.9